Nantucket, MA

5:49 PM EST on February 24, 2017 (GMT -0500)
Nantucket Memorial

Weather History for KACK - June, 2014

Change the Weather History Date:

Friday, June 6, 2014

  Actual Average Record
Temperature  
Mean Temperature 62 °F -  
Max Temperature 69 °F 66 °F 86 °F (1968)
Min Temperature 55 °F 52 °F 46 °F (1951)
Degree Days  
Heating Degree Days 3    
Growing Degree Days 12 (Base 50)    
Moisture  
Dew Point 54 °F    
Average Humidity 79    
Maximum Humidity 94    
Minimum Humidity 63    
Precipitation  
Precipitation 0.00 in - - ()
Sea Level Pressure  
Sea Level Pressure 29.77 in    
Wind  
Wind Speed 10 mph (West)    
Max Wind Speed 15 mph    
Max Gust Speed 21 mph    
Visibility 10 miles    
Events      
Averages and records for this station are not official NWS values.
T = Trace of Precipitation, MM = Missing Value Source: NWS Daily Summary

Daily Weather History Graph

Daily Weather History Graph

Search for Another Location

Airport or City:

Trip Planner

Search our weather history database for the weather conditions in past years. The results will help you decide how hot, cold, wet, or windy it might be!

Date:

Astronomy

Jun. 06, 2014 Rise Set
Actual Time 5:07 AM EDT 8:10 PM EDT
Civil Twilight 4:34 AM EDT 8:43 PM EDT
Nautical Twilight 3:51 AM EDT 9:26 PM EDT
Astronomical Twilight 3:01 AM EDT 10:16 PM EDT
Moon 1:22 PM EDT (6/6) 1:01 AM EDT (6/6)
Length of Visible Light 16h 09m
Length of Day
15h 02m
First Quarter, 58% of the Moon is Illuminated
Jun 6
First Quarter
Jun 13
Full
Jun 19
Last Quarter
Jun 27
New
Jul 5
First Quarter

Hourly Weather History & Observations

Time (EDT) Temp. Dew Point Humidity Pressure Visibility Wind Dir Wind Speed Gust Speed Precip Events Conditions
12:00 AM 57.2 °F 53.6 °F 88% 29.73 in 10.0 mi WNW 8.1 mph - N/A   Scattered Clouds
12:30 AM - - N/A% 29.72 in 10.0 mi WNW 10.4 mph - N/A   Mostly Cloudy
12:53 AM 57.9 °F 55.0 °F 90% 29.72 in 10.0 mi WNW 10.4 mph - N/A   Mostly Cloudy
1:02 AM 57.2 °F 55.4 °F 94% 29.71 in 10.0 mi WNW 9.2 mph - N/A   Partly Cloudy
1:53 AM - - N/A% 29.73 in 10.0 mi West 4.6 mph - N/A   Clear
2:53 AM 55.9 °F 53.1 °F 90% 29.72 in 10.0 mi West 11.5 mph - N/A   Clear
3:11 AM 55.4 °F 53.6 °F 94% 29.72 in 10.0 mi West 11.5 mph - N/A   Scattered Clouds
3:53 AM 55.9 °F 54.0 °F 93% 29.73 in 7.0 mi WSW 8.1 mph - N/A   Overcast
4:53 AM 55.9 °F 54.0 °F 93% 29.73 in 9.0 mi WSW 9.2 mph - N/A   Overcast
5:17 AM 57.2 °F 53.6 °F 88% 29.73 in 9.0 mi WSW 10.4 mph 20.7 mph N/A   Overcast
5:53 AM 57.0 °F 54.0 °F 89% 29.74 in 10.0 mi WSW 9.2 mph - N/A   Mostly Cloudy
6:53 AM 57.9 °F 55.9 °F 93% 29.76 in 10.0 mi West 11.5 mph - N/A   Overcast
7:53 AM 57.9 °F 54.0 °F 87% 29.77 in 10.0 mi West 10.4 mph - N/A   Overcast
8:53 AM 61.0 °F 54.0 °F 78% 29.77 in 10.0 mi West 13.8 mph - N/A   Scattered Clouds
9:53 AM 64.0 °F 55.0 °F 73% 29.77 in 10.0 mi West 12.7 mph - N/A   Clear
11:53 AM 64.0 °F 55.0 °F 73% 29.77 in 10.0 mi Variable 6.9 mph 16.1 mph N/A   Mostly Cloudy
12:53 PM 66.0 °F 55.9 °F 70% 29.78 in 10.0 mi SW 12.7 mph - N/A   Mostly Cloudy
1:27 PM 66.2 °F 55.4 °F 68% 29.78 in 10.0 mi NW 8.1 mph 16.1 mph N/A   Mostly Cloudy
1:53 PM 68.0 °F 55.9 °F 65% 29.78 in 10.0 mi WSW 11.5 mph - N/A   Mostly Cloudy
2:05 PM 66.2 °F 55.4 °F 68% 29.78 in 10.0 mi SW 13.8 mph - N/A   Mostly Cloudy
2:14 PM 66.2 °F 55.4 °F 68% 29.78 in 10.0 mi WSW 13.8 mph - N/A   Mostly Cloudy
2:21 PM 68.0 °F 55.4 °F 64% 29.78 in 10.0 mi WSW 12.7 mph - N/A   Mostly Cloudy
2:53 PM 69.1 °F 55.9 °F 63% 29.79 in 10.0 mi West 11.5 mph - N/A   Scattered Clouds
3:53 PM 66.0 °F 54.0 °F 65% 29.80 in 10.0 mi West 12.7 mph - N/A   Clear
4:53 PM 62.1 °F 53.1 °F 72% 29.80 in 10.0 mi WSW 12.7 mph - N/A   Clear
5:53 PM 64.9 °F 53.1 °F 65% 29.80 in 10.0 mi West 15.0 mph - N/A   Clear
6:53 PM 63.0 °F 52.0 °F 67% 29.82 in 10.0 mi West 11.5 mph - N/A   Clear
7:53 PM 60.1 °F 53.1 °F 78% 29.83 in 10.0 mi WSW 11.5 mph - N/A   Clear
8:53 PM 57.0 °F 53.1 °F 87% 29.84 in 10.0 mi WSW 11.5 mph - N/A   Clear
9:53 PM 59.0 °F 53.1 °F 81% 29.85 in 10.0 mi West 9.2 mph - N/A   Clear
10:53 PM 60.1 °F 53.1 °F 78% 29.86 in 10.0 mi West 9.2 mph - N/A   Mostly Cloudy
11:53 PM 61.0 °F 54.0 °F 78% 29.86 in 10.0 mi WNW 9.2 mph - N/A   Partly Cloudy